Data supplied by UK-AIR on 11/5/2022
All Data GMT hour ending 
Status: R =Ratified P=Provisional,P*=As supplied
,,Eastbourne,,,,,,,,,,,,,,,,,,,,,,,
Date,time,"PM<sub>10</sub> particulate matter (Hourly measured)",status,unit,"Nitric oxide",status,unit,"Nitrogen dioxide",status,unit,"Nitrogen oxides as nitrogen dioxide",status,unit,"PM<sub>2.5</sub> particulate matter (Hourly measured)",status,unit
 
01-01-2021,01:00,24.200,R,ugm-3 (FIDAS),0.44699,R,ugm-3,20.35362,R,ugm-3,21.03898,R,ugm-3,21.816,R,ugm-3 (Ref.eq)
01-01-2021,02:00,17.925,R,ugm-3 (FIDAS),0.56618,R,ugm-3,15.49552,R,ugm-3,16.36365,R,ugm-3,16.580,R,ugm-3 (Ref.eq)
01-01-2021,03:00,16.525,R,ugm-3 (FIDAS),0.42464,R,ugm-3,12.54983,R,ugm-3,13.20093,R,ugm-3,15.024,R,ugm-3 (Ref.eq)
01-01-2021,04:00,15.350,R,ugm-3 (FIDAS),0.26819,R,ugm-3,11.00208,R,ugm-3,11.41331,R,ugm-3,13.797,R,ugm-3 (Ref.eq)
01-01-2021,05:00,15.000,R,ugm-3 (FIDAS),0.15645,R,ugm-3,10.10773,R,ugm-3,10.34761,R,ugm-3,13.514,R,ugm-3 (Ref.eq)
01-01-2021,06:00,15.150,R,ugm-3 (FIDAS),0.29054,R,ugm-3,10.48653,R,ugm-3,10.93202,R,ugm-3,13.491,R,ugm-3 (Ref.eq)
01-01-2021,07:00,17.625,R,ugm-3 (FIDAS),0.31289,R,ugm-3,11.00230,R,ugm-3,11.48206,R,ugm-3,15.472,R,ugm-3 (Ref.eq)
01-01-2021,08:00,17.150,R,ugm-3 (FIDAS),0.35759,R,ugm-3,10.10871,R,ugm-3,10.65700,R,ugm-3,15.330,R,ugm-3 (Ref.eq)
01-01-2021,09:00,18.900,R,ugm-3 (FIDAS),0.37994,R,ugm-3,10.45259,R,ugm-3,11.03515,R,ugm-3,16.415,R,ugm-3 (Ref.eq)
01-01-2021,10:00,14.175,R,ugm-3 (FIDAS),0.26819,R,ugm-3,7.52996,R,ugm-3,7.94119,R,ugm-3,12.335,R,ugm-3 (Ref.eq)
01-01-2021,11:00,13.700,R,ugm-3 (FIDAS),0.44699,R,ugm-3,8.11525,R,ugm-3,8.80062,R,ugm-3,12.005,R,ugm-3 (Ref.eq)
01-01-2021,12:00,15.775,R,ugm-3 (FIDAS),0.69283,R,ugm-3,7.46328,R,ugm-3,8.52560,R,ugm-3,13.420,R,ugm-3 (Ref.eq)
01-01-2021,13:00,17.800,R,ugm-3 (FIDAS),0.67048,R,ugm-3,7.97883,R,ugm-3,9.00689,R,ugm-3,15.637,R,ugm-3 (Ref.eq)
01-01-2021,14:00,13.875,R,ugm-3 (FIDAS),0.87162,R,ugm-3,8.11732,R,ugm-3,9.45379,R,ugm-3,12.288,R,ugm-3 (Ref.eq)
01-01-2021,15:00,14.050,R,ugm-3 (FIDAS),0.67048,R,ugm-3,9.04453,R,ugm-3,10.07259,R,ugm-3,12.736,R,ugm-3 (Ref.eq)
01-01-2021,16:00,17.875,R,ugm-3 (FIDAS),0.69283,R,ugm-3,11.38231,R,ugm-3,12.44463,R,ugm-3,15.967,R,ugm-3 (Ref.eq)
01-01-2021,17:00,20.950,R,ugm-3 (FIDAS),0.53638,R,ugm-3,15.12868,R,ugm-3,15.95113,R,ugm-3,18.821,R,ugm-3 (Ref.eq)
01-01-2021,18:00,21.350,R,ugm-3 (FIDAS),0.69283,R,ugm-3,16.60767,R,ugm-3,17.67000,R,ugm-3,19.222,R,ugm-3 (Ref.eq)
01-01-2021,19:00,29.900,R,ugm-3 (FIDAS),0.87162,R,ugm-3,18.36179,R,ugm-3,19.69826,R,ugm-3,27.028,R,ugm-3 (Ref.eq)
01-01-2021,20:00,30.700,R,ugm-3 (FIDAS),1.18452,R,ugm-3,19.56653,R,ugm-3,21.38276,R,ugm-3,27.995,R,ugm-3 (Ref.eq)
01-01-2021,21:00,33.325,R,ugm-3 (FIDAS),1.31861,R,ugm-3,20.11722,R,ugm-3,22.13906,R,ugm-3,30.519,R,ugm-3 (Ref.eq)
01-01-2021,22:00,38.475,R,ugm-3 (FIDAS),1.00572,R,ugm-3,20.76887,R,ugm-3,22.31095,R,ugm-3,34.811,R,ugm-3 (Ref.eq)
01-01-2021,23:00,34.375,R,ugm-3 (FIDAS),1.11747,R,ugm-3,20.63190,R,ugm-3,22.34533,R,ugm-3,31.321,R,ugm-3 (Ref.eq)
01-01-2021,24:00,33.900,R,ugm-3 (FIDAS),0.98337,R,ugm-3,20.32185,R,ugm-3,21.82967,R,ugm-3,30.543,R,ugm-3 (Ref.eq)
02-01-2021,01:00,32.275,R,ugm-3 (FIDAS),0.86059,R,ugm-3,20.44817,R,ugm-3,21.76772,R,ugm-3,28.349,R,ugm-3 (Ref.eq)
02-01-2021,02:00,27.475,R,ugm-3 (FIDAS),0.89026,R,ugm-3,19.99195,R,ugm-3,21.35701,R,ugm-3,24.033,R,ugm-3 (Ref.eq)
02-01-2021,03:00,23.800,R,ugm-3 (FIDAS),0.82349,R,ugm-3,18.79375,R,ugm-3,20.05642,R,ugm-3,20.684,R,ugm-3 (Ref.eq)
02-01-2021,04:00,20.225,R,ugm-3 (FIDAS),0.73447,R,ugm-3,15.43920,R,ugm-3,16.56537,R,ugm-3,17.500,R,ugm-3 (Ref.eq)
02-01-2021,05:00,10.650,R,ugm-3 (FIDAS),0.51190,R,ugm-3,9.41443,R,ugm-3,10.19934,R,ugm-3,9.127,R,ugm-3 (Ref.eq)
02-01-2021,06:00,9.525,R,ugm-3 (FIDAS),0.46739,R,ugm-3,9.75649,R,ugm-3,10.47315,R,ugm-3,8.231,R,ugm-3 (Ref.eq)
02-01-2021,07:00,10.450,R,ugm-3 (FIDAS),0.71221,R,ugm-3,11.50312,R,ugm-3,12.59516,R,ugm-3,8.986,R,ugm-3 (Ref.eq)
02-01-2021,08:00,9.775,R,ugm-3 (FIDAS),0.68996,R,ugm-3,11.94795,R,ugm-3,13.00587,R,ugm-3,7.877,R,ugm-3 (Ref.eq)
02-01-2021,09:00,11.750,R,ugm-3 (FIDAS),2.35920,R,ugm-3,13.46137,R,ugm-3,17.07876,R,ugm-3,8.939,R,ugm-3 (Ref.eq)
02-01-2021,10:00,9.075,R,ugm-3 (FIDAS),3.31623,R,ugm-3,14.59511,R,ugm-3,19.67993,R,ugm-3,7.099,R,ugm-3 (Ref.eq)
02-01-2021,11:00,8.425,R,ugm-3 (FIDAS),1.55796,R,ugm-3,12.15720,R,ugm-3,14.54604,R,ugm-3,6.580,R,ugm-3 (Ref.eq)
02-01-2021,12:00,7.050,R,ugm-3 (FIDAS),1.44668,R,ugm-3,11.30105,R,ugm-3,13.51926,R,ugm-3,4.835,R,ugm-3 (Ref.eq)
02-01-2021,13:00,6.200,R,ugm-3 (FIDAS),1.84730,R,ugm-3,13.39063,R,ugm-3,16.22311,R,ugm-3,4.528,R,ugm-3 (Ref.eq)
02-01-2021,14:00,5.900,R,ugm-3 (FIDAS),1.46894,R,ugm-3,14.00500,R,ugm-3,16.25734,R,ugm-3,3.939,R,ugm-3 (Ref.eq)
02-01-2021,15:00,6.275,R,ugm-3 (FIDAS),0.93478,R,ugm-3,15.26897,R,ugm-3,16.70227,R,ugm-3,4.104,R,ugm-3 (Ref.eq)
02-01-2021,16:00,5.075,R,ugm-3 (FIDAS),0.84575,R,ugm-3,15.50815,R,ugm-3,16.80495,R,ugm-3,3.774,R,ugm-3 (Ref.eq)
02-01-2021,17:00,8.225,R,ugm-3 (FIDAS),0.89026,R,ugm-3,21.70325,R,ugm-3,23.06831,R,ugm-3,5.307,R,ugm-3 (Ref.eq)
02-01-2021,18:00,13.400,R,ugm-3 (FIDAS),1.60248,R,ugm-3,31.15281,R,ugm-3,33.60990,R,ugm-3,10.354,R,ugm-3 (Ref.eq)
02-01-2021,19:00,19.050,R,ugm-3 (FIDAS),3.40526,R,ugm-3,37.59537,R,ugm-3,42.81669,R,ugm-3,16.156,R,ugm-3 (Ref.eq)
02-01-2021,20:00,18.300,R,ugm-3 (FIDAS),2.49274,R,ugm-3,32.45738,R,ugm-3,36.27953,R,ugm-3,15.613,R,ugm-3 (Ref.eq)
02-01-2021,21:00,12.400,R,ugm-3 (FIDAS),0.95703,R,ugm-3,20.02648,R,ugm-3,21.49391,R,ugm-3,10.495,R,ugm-3 (Ref.eq)
02-01-2021,22:00,10.075,R,ugm-3 (FIDAS),0.62319,R,ugm-3,17.25268,R,ugm-3,18.20822,R,ugm-3,8.726,R,ugm-3 (Ref.eq)
02-01-2021,23:00,10.400,R,ugm-3 (FIDAS),0.46739,R,ugm-3,16.32788,R,ugm-3,17.04454,R,ugm-3,8.750,R,ugm-3 (Ref.eq)
02-01-2021,24:00,9.525,R,ugm-3 (FIDAS),0.42288,R,ugm-3,16.12233,R,ugm-3,16.77073,R,ugm-3,8.208,R,ugm-3 (Ref.eq)
03-01-2021,01:00,10.550,R,ugm-3 (FIDAS),0.47283,R,ugm-3,16.26683,R,ugm-3,16.99183,R,ugm-3,8.986,R,ugm-3 (Ref.eq)
03-01-2021,02:00,11.725,R,ugm-3 (FIDAS),0.56149,R,ugm-3,16.08546,R,ugm-3,16.94639,R,ugm-3,10.212,R,ugm-3 (Ref.eq)
03-01-2021,03:00,11.450,R,ugm-3 (FIDAS),0.44328,R,ugm-3,13.69976,R,ugm-3,14.37945,R,ugm-3,10.142,R,ugm-3 (Ref.eq)
03-01-2021,04:00,9.675,R,ugm-3 (FIDAS),0.19947,R,ugm-3,6.78164,R,ugm-3,7.08750,R,ugm-3,8.750,R,ugm-3 (Ref.eq)
03-01-2021,05:00,5.575,R,ugm-3 (FIDAS),0.20686,R,ugm-3,4.72584,R,ugm-3,5.04303,R,ugm-3,5.165,R,ugm-3 (Ref.eq)
03-01-2021,06:00,3.575,R,ugm-3 (FIDAS),0.39895,R,ugm-3,3.85205,R,ugm-3,4.46376,R,ugm-3,3.184,R,ugm-3 (Ref.eq)
03-01-2021,07:00,2.775,R,ugm-3 (FIDAS),0.35462,R,ugm-3,4.26076,R,ugm-3,4.80451,R,ugm-3,2.264,R,ugm-3 (Ref.eq)
03-01-2021,08:00,3.450,R,ugm-3 (FIDAS),0.44328,R,ugm-3,7.02116,R,ugm-3,7.70084,R,ugm-3,2.618,R,ugm-3 (Ref.eq)
03-01-2021,09:00,5.850,R,ugm-3 (FIDAS),0.57626,R,ugm-3,8.18024,R,ugm-3,9.06382,R,ugm-3,4.882,R,ugm-3 (Ref.eq)
03-01-2021,10:00,7.200,R,ugm-3 (FIDAS),0.82006,R,ugm-3,8.28345,R,ugm-3,9.54087,R,ugm-3,6.415,R,ugm-3 (Ref.eq)
03-01-2021,11:00,8.100,R,ugm-3 (FIDAS),1.41849,R,ugm-3,9.17183,R,ugm-3,11.34682,R,ugm-3,6.769,R,ugm-3 (Ref.eq)
03-01-2021,12:00,7.225,R,ugm-3 (FIDAS),1.90609,R,ugm-3,8.35603,R,ugm-3,11.27867,R,ugm-3,6.226,R,ugm-3 (Ref.eq)
03-01-2021,13:00,7.025,R,ugm-3 (FIDAS),1.46282,R,ugm-3,8.76312,R,ugm-3,11.00607,R,ugm-3,5.660,R,ugm-3 (Ref.eq)
03-01-2021,14:00,6.875,R,ugm-3 (FIDAS),1.75095,R,ugm-3,12.27397,R,ugm-3,14.95871,R,ugm-3,5.849,R,ugm-3 (Ref.eq)
03-01-2021,15:00,19.175,R,ugm-3 (FIDAS),2.12773,R,ugm-3,14.42220,R,ugm-3,17.68468,R,ugm-3,13.821,R,ugm-3 (Ref.eq)
03-01-2021,16:00,11.250,R,ugm-3 (FIDAS),1.68446,R,ugm-3,17.18043,R,ugm-3,19.76322,R,ugm-3,9.906,R,ugm-3 (Ref.eq)
03-01-2021,17:00,7.975,R,ugm-3 (FIDAS),0.84223,R,ugm-3,15.33697,R,ugm-3,16.62837,R,ugm-3,6.557,R,ugm-3 (Ref.eq)
03-01-2021,18:00,10.250,R,ugm-3 (FIDAS),1.08603,R,ugm-3,17.17799,R,ugm-3,18.84321,R,ugm-3,8.915,R,ugm-3 (Ref.eq)
03-01-2021,19:00,12.150,R,ugm-3 (FIDAS),0.90872,R,ugm-3,13.73574,R,ugm-3,15.12909,R,ugm-3,10.307,R,ugm-3 (Ref.eq)
03-01-2021,20:00,10.825,R,ugm-3 (FIDAS),0.42111,R,ugm-3,9.44036,R,ugm-3,10.08606,R,ugm-3,9.033,R,ugm-3 (Ref.eq)
03-01-2021,21:00,7.800,R,ugm-3 (FIDAS),0.46544,R,ugm-3,8.24793,R,ugm-3,8.96160,R,ugm-3,6.462,R,ugm-3 (Ref.eq)
03-01-2021,22:00,8.775,R,ugm-3 (FIDAS),0.46544,R,ugm-3,8.72497,R,ugm-3,9.43864,R,ugm-3,6.745,R,ugm-3 (Ref.eq)
03-01-2021,23:00,8.500,R,ugm-3 (FIDAS),0.33246,R,ugm-3,7.87257,R,ugm-3,8.38233,R,ugm-3,6.557,R,ugm-3 (Ref.eq)
03-01-2021,24:00,7.400,R,ugm-3 (FIDAS),0.33246,R,ugm-3,5.28291,R,ugm-3,5.79267,R,ugm-3,5.542,R,ugm-3 (Ref.eq)
04-01-2021,01:00,8.400,R,ugm-3 (FIDAS),0.35314,R,ugm-3,4.88622,R,ugm-3,5.42769,R,ugm-3,5.118,R,ugm-3 (Ref.eq)
04-01-2021,02:00,6.900,R,ugm-3 (FIDAS),0.14714,R,ugm-3,4.02608,R,ugm-3,4.25169,R,ugm-3,4.151,R,ugm-3 (Ref.eq)
04-01-2021,03:00,5.375,R,ugm-3 (FIDAS),0.35314,R,ugm-3,3.63107,R,ugm-3,4.17254,R,ugm-3,2.925,R,ugm-3 (Ref.eq)
04-01-2021,04:00,4.700,R,ugm-3 (FIDAS),0.19864,R,ugm-3,3.59658,R,ugm-3,3.90115,R,ugm-3,2.830,R,ugm-3 (Ref.eq)
04-01-2021,05:00,5.100,R,ugm-3 (FIDAS),0.28693,R,ugm-3,4.37713,R,ugm-3,4.81708,R,ugm-3,3.184,R,ugm-3 (Ref.eq)
04-01-2021,06:00,4.325,R,ugm-3 (FIDAS),0.41935,R,ugm-3,4.75077,R,ugm-3,5.39377,R,ugm-3,2.995,R,ugm-3 (Ref.eq)
04-01-2021,07:00,3.850,R,ugm-3 (FIDAS),0.41935,R,ugm-3,6.65046,R,ugm-3,7.29346,R,ugm-3,2.807,R,ugm-3 (Ref.eq)
04-01-2021,08:00,3.450,R,ugm-3 (FIDAS),0.59592,R,ugm-3,9.60242,R,ugm-3,10.51615,R,ugm-3,2.217,R,ugm-3 (Ref.eq)
04-01-2021,09:00,3.550,R,ugm-3 (FIDAS),0.88285,R,ugm-3,10.99432,R,ugm-3,12.34800,R,ugm-3,1.887,R,ugm-3 (Ref.eq)
04-01-2021,10:00,4.225,R,ugm-3 (FIDAS),0.86078,R,ugm-3,8.21255,R,ugm-3,9.53238,R,ugm-3,2.359,R,ugm-3 (Ref.eq)
04-01-2021,11:00,3.700,R,ugm-3 (FIDAS),0.86078,R,ugm-3,8.07685,R,ugm-3,9.39669,R,ugm-3,2.264,R,ugm-3 (Ref.eq)
04-01-2021,12:00,3.125,R,ugm-3 (FIDAS),1.25806,R,ugm-3,8.85854,R,ugm-3,10.78754,R,ugm-3,1.863,R,ugm-3 (Ref.eq)
04-01-2021,13:00,4.050,R,ugm-3 (FIDAS),1.08149,R,ugm-3,9.06143,R,ugm-3,10.71969,R,ugm-3,2.736,R,ugm-3 (Ref.eq)
04-01-2021,14:00,5.625,R,ugm-3 (FIDAS),1.19184,R,ugm-3,9.67245,R,ugm-3,11.49992,R,ugm-3,3.939,R,ugm-3 (Ref.eq)
04-01-2021,15:00,5.875,R,ugm-3 (FIDAS),1.36841,R,ugm-3,10.89433,R,ugm-3,12.99253,R,ugm-3,4.104,R,ugm-3 (Ref.eq)
04-01-2021,16:00,4.750,R,ugm-3 (FIDAS),0.97113,R,ugm-3,9.80733,R,ugm-3,11.29638,R,ugm-3,3.396,R,ugm-3 (Ref.eq)
04-01-2021,17:00,4.150,R,ugm-3 (FIDAS),0.86078,R,ugm-3,9.36593,R,ugm-3,10.68577,R,ugm-3,2.995,R,ugm-3 (Ref.eq)
04-01-2021,18:00,7.125,R,ugm-3 (FIDAS),0.52971,R,ugm-3,7.26148,R,ugm-3,8.07369,R,ugm-3,4.387,R,ugm-3 (Ref.eq)
04-01-2021,19:00,7.575,R,ugm-3 (FIDAS),0.52971,R,ugm-3,6.61694,R,ugm-3,7.42915,R,ugm-3,4.127,R,ugm-3 (Ref.eq)
04-01-2021,20:00,7.000,R,ugm-3 (FIDAS),0.17657,R,ugm-3,4.98734,R,ugm-3,5.25808,R,ugm-3,3.844,R,ugm-3 (Ref.eq)
04-01-2021,21:00,5.325,R,ugm-3 (FIDAS),0.14714,R,ugm-3,4.38792,R,ugm-3,4.61354,R,ugm-3,3.042,R,ugm-3 (Ref.eq)
04-01-2021,22:00,6.575,R,ugm-3 (FIDAS),0.30900,R,ugm-3,5.29313,R,ugm-3,5.76692,R,ugm-3,3.656,R,ugm-3 (Ref.eq)
04-01-2021,23:00,5.350,R,ugm-3 (FIDAS),0.26485,R,ugm-3,4.85197,R,ugm-3,5.25808,R,ugm-3,3.278,R,ugm-3 (Ref.eq)
04-01-2021,24:00,3.825,R,ugm-3 (FIDAS),0.22071,R,ugm-3,5.05535,R,ugm-3,5.39377,R,ugm-3,2.689,R,ugm-3 (Ref.eq)
05-01-2021,01:00,4.475,R,ugm-3 (FIDAS),0.26374,R,ugm-3,4.81895,R,ugm-3,5.22334,R,ugm-3,2.783,R,ugm-3 (Ref.eq)
05-01-2021,02:00,3.975,R,ugm-3 (FIDAS),0.38096,R,ugm-3,4.00881,R,ugm-3,4.59294,R,ugm-3,2.547,R,ugm-3 (Ref.eq)
05-01-2021,03:00,4.625,R,ugm-3 (FIDAS),0.10989,R,ugm-3,4.39067,R,ugm-3,4.55917,R,ugm-3,2.830,R,ugm-3 (Ref.eq)
05-01-2021,04:00,4.375,R,ugm-3 (FIDAS),0.17583,R,ugm-3,4.00814,R,ugm-3,4.27774,R,ugm-3,2.500,R,ugm-3 (Ref.eq)
05-01-2021,05:00,3.600,R,ugm-3 (FIDAS),0.39561,R,ugm-3,3.78371,R,ugm-3,4.39031,R,ugm-3,2.217,R,ugm-3 (Ref.eq)
05-01-2021,06:00,2.550,R,ugm-3 (FIDAS),0.41759,R,ugm-3,4.08773,R,ugm-3,4.72803,R,ugm-3,1.769,R,ugm-3 (Ref.eq)
05-01-2021,07:00,2.575,R,ugm-3 (FIDAS),0.50550,R,ugm-3,6.24940,R,ugm-3,7.02450,R,ugm-3,1.887,R,ugm-3 (Ref.eq)
05-01-2021,08:00,2.225,R,ugm-3 (FIDAS),0.63737,R,ugm-3,8.37744,R,ugm-3,9.35474,R,ugm-3,1.580,R,ugm-3 (Ref.eq)
05-01-2021,09:00,2.375,R,ugm-3 (FIDAS),0.70331,R,ugm-3,9.45835,R,ugm-3,10.53674,R,ugm-3,1.675,R,ugm-3 (Ref.eq)
05-01-2021,10:00,2.900,R,ugm-3 (FIDAS),0.72529,R,ugm-3,9.55974,R,ugm-3,10.67183,R,ugm-3,1.816,R,ugm-3 (Ref.eq)
05-01-2021,11:00,2.075,R,ugm-3 (FIDAS),1.23079,R,ugm-3,8.54824,R,ugm-3,10.43543,R,ugm-3,1.368,R,ugm-3 (Ref.eq)
05-01-2021,12:00,1.775,R,ugm-3 (FIDAS),1.60442,R,ugm-3,9.05604,R,ugm-3,11.51612,R,ugm-3,1.203,R,ugm-3 (Ref.eq)
05-01-2021,13:00,3.050,R,ugm-3 (FIDAS),1.64838,R,ugm-3,10.03556,R,ugm-3,12.56304,R,ugm-3,1.675,R,ugm-3 (Ref.eq)
05-01-2021,14:00,2.800,R,ugm-3 (FIDAS),1.34068,R,ugm-3,11.25033,R,ugm-3,13.30601,R,ugm-3,1.745,R,ugm-3 (Ref.eq)
05-01-2021,15:00,1.925,R,ugm-3 (FIDAS),1.31871,R,ugm-3,11.18271,R,ugm-3,13.20470,R,ugm-3,1.368,R,ugm-3 (Ref.eq)
05-01-2021,16:00,5.150,R,ugm-3 (FIDAS),1.23079,R,ugm-3,11.92540,R,ugm-3,13.81259,R,ugm-3,1.981,R,ugm-3 (Ref.eq)
05-01-2021,17:00,3.700,R,ugm-3 (FIDAS),1.16486,R,ugm-3,11.99273,R,ugm-3,13.77882,R,ugm-3,1.604,R,ugm-3 (Ref.eq)
05-01-2021,18:00,2.975,R,ugm-3 (FIDAS),1.07694,R,ugm-3,12.29639,R,ugm-3,13.94768,R,ugm-3,1.486,R,ugm-3 (Ref.eq)
05-01-2021,19:00,2.550,R,ugm-3 (FIDAS),0.79122,R,ugm-3,10.33670,R,ugm-3,11.54989,R,ugm-3,1.981,R,ugm-3 (Ref.eq)
05-01-2021,20:00,2.825,R,ugm-3 (FIDAS),0.50550,R,ugm-3,8.51210,R,ugm-3,9.28719,R,ugm-3,1.934,R,ugm-3 (Ref.eq)
05-01-2021,21:00,2.450,R,ugm-3 (FIDAS),0.49818,R,ugm-3,7.52144,R,ugm-3,8.28530,R,ugm-3,1.863,R,ugm-3 (Ref.eq)
05-01-2021,22:00,2.700,R,ugm-3 (FIDAS),0.37363,R,ugm-3,7.05949,R,ugm-3,7.63238,R,ugm-3,2.028,R,ugm-3 (Ref.eq)
05-01-2021,23:00,3.150,R,ugm-3 (FIDAS),0.35166,R,ugm-3,7.29582,R,ugm-3,7.83501,R,ugm-3,2.476,R,ugm-3 (Ref.eq)
05-01-2021,24:00,4.000,R,ugm-3 (FIDAS),0.28572,R,ugm-3,6.58640,R,ugm-3,7.02450,R,ugm-3,2.877,R,ugm-3 (Ref.eq)
06-01-2021,01:00,5.100,R,ugm-3 (FIDAS),0.14590,R,ugm-3,6.18653,R,ugm-3,6.41024,R,ugm-3,3.656,R,ugm-3 (Ref.eq)
06-01-2021,02:00,5.425,R,ugm-3 (FIDAS),0.37935,R,ugm-3,6.36650,R,ugm-3,6.94817,R,ugm-3,3.797,R,ugm-3 (Ref.eq)
06-01-2021,03:00,1.875,R,ugm-3 (FIDAS),0.19697,R,ugm-3,5.54789,R,ugm-3,5.84991,R,ugm-3,1.604,R,ugm-3 (Ref.eq)
06-01-2021,04:00,1.450,R,ugm-3 (FIDAS),0.24074,R,ugm-3,5.21181,R,ugm-3,5.58095,R,ugm-3,1.179,R,ugm-3 (Ref.eq)
06-01-2021,05:00,1.450,R,ugm-3 (FIDAS),0.26263,R,ugm-3,5.21187,R,ugm-3,5.61457,R,ugm-3,1.156,R,ugm-3 (Ref.eq)
06-01-2021,06:00,0.975,R,ugm-3 (FIDAS),0.39394,R,ugm-3,6.01914,R,ugm-3,6.62317,R,ugm-3,0.708,R,ugm-3 (Ref.eq)
06-01-2021,07:00,1.125,R,ugm-3 (FIDAS),0.54714,R,ugm-3,8.84367,R,ugm-3,9.68261,R,ugm-3,0.731,R,ugm-3 (Ref.eq)
06-01-2021,08:00,1.525,R,ugm-3 (FIDAS),1.11617,R,ugm-3,13.68659,R,ugm-3,15.39803,R,ugm-3,0.991,R,ugm-3 (Ref.eq)
06-01-2021,09:00,3.625,R,ugm-3 (FIDAS),4.57411,R,ugm-3,24.21959,R,ugm-3,31.23313,R,ugm-3,2.382,R,ugm-3 (Ref.eq)
06-01-2021,10:00,4.075,R,ugm-3 (FIDAS),3.23908,R,ugm-3,20.41669,R,ugm-3,25.38322,R,ugm-3,2.901,R,ugm-3 (Ref.eq)
06-01-2021,11:00,4.975,R,ugm-3 (FIDAS),3.30474,R,ugm-3,17.86175,R,ugm-3,22.92895,R,ugm-3,4.009,R,ugm-3 (Ref.eq)
06-01-2021,12:00,4.325,R,ugm-3 (FIDAS),2.45120,R,ugm-3,13.55593,R,ugm-3,17.31438,R,ugm-3,3.373,R,ugm-3 (Ref.eq)
06-01-2021,13:00,6.300,R,ugm-3 (FIDAS),2.95457,R,ugm-3,13.18755,R,ugm-3,17.71782,R,ugm-3,4.363,R,ugm-3 (Ref.eq)
06-01-2021,14:00,6.125,R,ugm-3 (FIDAS),1.88217,R,ugm-3,9.45264,R,ugm-3,12.33860,R,ugm-3,3.821,R,ugm-3 (Ref.eq)
06-01-2021,15:00,4.825,R,ugm-3 (FIDAS),1.64143,R,ugm-3,8.71231,R,ugm-3,11.22913,R,ugm-3,2.759,R,ugm-3 (Ref.eq)
06-01-2021,16:00,6.050,R,ugm-3 (FIDAS),1.15994,R,ugm-3,10.82901,R,ugm-3,12.60756,R,ugm-3,3.184,R,ugm-3 (Ref.eq)
06-01-2021,17:00,8.850,R,ugm-3 (FIDAS),1.18183,R,ugm-3,16.17467,R,ugm-3,17.98678,R,ugm-3,4.670,R,ugm-3 (Ref.eq)
06-01-2021,18:00,12.375,R,ugm-3 (FIDAS),3.15154,R,ugm-3,29.39302,R,ugm-3,34.22532,R,ugm-3,7.877,R,ugm-3 (Ref.eq)
06-01-2021,19:00,16.450,R,ugm-3 (FIDAS),5.84348,R,ugm-3,33.83858,R,ugm-3,42.79846,R,ugm-3,12.571,R,ugm-3 (Ref.eq)
06-01-2021,20:00,16.575,R,ugm-3 (FIDAS),1.86028,R,ugm-3,26.32990,R,ugm-3,29.18229,R,ugm-3,13.278,R,ugm-3 (Ref.eq)
06-01-2021,21:00,17.475,R,ugm-3 (FIDAS),1.72897,R,ugm-3,24.17784,R,ugm-3,26.82889,R,ugm-3,13.538,R,ugm-3 (Ref.eq)
06-01-2021,22:00,15.725,R,ugm-3 (FIDAS),1.13806,R,ugm-3,22.73048,R,ugm-3,24.47547,R,ugm-3,11.981,R,ugm-3 (Ref.eq)
06-01-2021,23:00,15.200,R,ugm-3 (FIDAS),0.76600,R,ugm-3,22.59494,R,ugm-3,23.76945,R,ugm-3,11.109,R,ugm-3 (Ref.eq)
06-01-2021,24:00,12.400,R,ugm-3 (FIDAS),0.67846,R,ugm-3,19.73697,R,ugm-3,20.77726,R,ugm-3,9.245,R,ugm-3 (Ref.eq)
07-01-2021,01:00,12.400,R,ugm-3 (FIDAS),0.63926,R,ugm-3,19.63653,R,ugm-3,20.61672,R,ugm-3,9.387,R,ugm-3 (Ref.eq)
07-01-2021,02:00,13.325,R,ugm-3 (FIDAS),0.81360,R,ugm-3,23.96558,R,ugm-3,25.21309,R,ugm-3,10.330,R,ugm-3 (Ref.eq)
07-01-2021,03:00,13.275,R,ugm-3 (FIDAS),0.74096,R,ugm-3,28.34980,R,ugm-3,29.48593,R,ugm-3,10.873,R,ugm-3 (Ref.eq)
07-01-2021,04:00,14.325,R,ugm-3 (FIDAS),0.50124,R,ugm-3,19.81470,R,ugm-3,20.58325,R,ugm-3,12.241,R,ugm-3 (Ref.eq)
07-01-2021,05:00,14.400,R,ugm-3 (FIDAS),0.56662,R,ugm-3,15.59780,R,ugm-3,16.46660,R,ugm-3,12.311,R,ugm-3 (Ref.eq)
07-01-2021,06:00,14.800,R,ugm-3 (FIDAS),0.93710,R,ugm-3,14.22649,R,ugm-3,15.66335,R,ugm-3,12.217,R,ugm-3 (Ref.eq)
07-01-2021,07:00,14.350,R,ugm-3 (FIDAS),0.84993,R,ugm-3,15.56503,R,ugm-3,16.86823,R,ugm-3,11.769,R,ugm-3 (Ref.eq)
07-01-2021,08:00,13.550,R,ugm-3 (FIDAS),1.32937,R,ugm-3,19.51550,R,ugm-3,21.55384,R,ugm-3,11.297,R,ugm-3 (Ref.eq)
07-01-2021,09:00,15.175,R,ugm-3 (FIDAS),4.81625,R,ugm-3,25.81614,R,ugm-3,33.20095,R,ugm-3,12.028,R,ugm-3 (Ref.eq)
07-01-2021,10:00,16.900,R,ugm-3 (FIDAS),6.23279,R,ugm-3,22.97477,R,ugm-3,32.53158,R,ugm-3,13.467,R,ugm-3 (Ref.eq)
07-01-2021,11:00,16.175,R,ugm-3 (FIDAS),7.60575,R,ugm-3,21.37163,R,ugm-3,33.03361,R,ugm-3,13.443,R,ugm-3 (Ref.eq)
07-01-2021,12:00,17.300,R,ugm-3 (FIDAS),7.58395,R,ugm-3,22.17482,R,ugm-3,33.80339,R,ugm-3,14.198,R,ugm-3 (Ref.eq)
07-01-2021,13:00,16.875,R,ugm-3 (FIDAS),5.42645,R,ugm-3,20.06102,R,ugm-3,28.38146,R,ugm-3,14.127,R,ugm-3 (Ref.eq)
07-01-2021,14:00,17.150,R,ugm-3 (FIDAS),5.44824,R,ugm-3,22.57122,R,ugm-3,30.92508,R,ugm-3,14.458,R,ugm-3 (Ref.eq)
07-01-2021,15:00,14.200,R,ugm-3 (FIDAS),4.90342,R,ugm-3,22.90458,R,ugm-3,30.42305,R,ugm-3,11.533,R,ugm-3 (Ref.eq)
07-01-2021,16:00,15.100,R,ugm-3 (FIDAS),3.81377,R,ugm-3,27.68794,R,ugm-3,33.53564,R,ugm-3,11.981,R,ugm-3 (Ref.eq)
07-01-2021,17:00,16.400,R,ugm-3 (FIDAS),2.89847,R,ugm-3,32.10357,R,ugm-3,36.54782,R,ugm-3,13.019,R,ugm-3 (Ref.eq)
07-01-2021,18:00,19.225,R,ugm-3 (FIDAS),1.59089,R,ugm-3,27.91679,R,ugm-3,30.35611,R,ugm-3,16.344,R,ugm-3 (Ref.eq)
07-01-2021,19:00,19.275,R,ugm-3 (FIDAS),1.28579,R,ugm-3,25.27201,R,ugm-3,27.24352,R,ugm-3,16.934,R,ugm-3 (Ref.eq)
07-01-2021,20:00,20.875,R,ugm-3 (FIDAS),1.35116,R,ugm-3,26.24277,R,ugm-3,28.31452,R,ugm-3,18.420,R,ugm-3 (Ref.eq)
07-01-2021,21:00,21.325,R,ugm-3 (FIDAS),2.11392,R,ugm-3,24.47079,R,ugm-3,27.71209,R,ugm-3,18.892,R,ugm-3 (Ref.eq)
07-01-2021,22:00,27.850,R,ugm-3 (FIDAS),0.58841,R,ugm-3,19.44676,R,ugm-3,20.34897,R,ugm-3,25.283,R,ugm-3 (Ref.eq)
07-01-2021,23:00,25.325,R,ugm-3 (FIDAS),0.52303,R,ugm-3,16.40094,R,ugm-3,17.20291,R,ugm-3,23.632,R,ugm-3 (Ref.eq)
07-01-2021,24:00,23.325,R,ugm-3 (FIDAS),0.39227,R,ugm-3,14.25863,R,ugm-3,14.86010,R,ugm-3,21.769,R,ugm-3 (Ref.eq)
08-01-2021,01:00,21.350,R,ugm-3 (FIDAS),0.34720,R,ugm-3,13.32760,R,ugm-3,13.85998,R,ugm-3,19.835,R,ugm-3 (Ref.eq)
08-01-2021,02:00,17.775,R,ugm-3 (FIDAS),0.63654,R,ugm-3,12.30646,R,ugm-3,13.28248,R,ugm-3,16.557,R,ugm-3 (Ref.eq)
08-01-2021,03:00,16.725,R,ugm-3 (FIDAS),0.49911,R,ugm-3,12.36171,R,ugm-3,13.12700,R,ugm-3,15.708,R,ugm-3 (Ref.eq)
08-01-2021,04:00,15.025,R,ugm-3 (FIDAS),0.41231,R,ugm-3,12.26158,R,ugm-3,12.89378,R,ugm-3,14.009,R,ugm-3 (Ref.eq)
08-01-2021,05:00,14.900,R,ugm-3 (FIDAS),0.67271,R,ugm-3,12.59528,R,ugm-3,13.62675,R,ugm-3,13.892,R,ugm-3 (Ref.eq)
08-01-2021,06:00,14.975,R,ugm-3 (FIDAS),1.10671,R,ugm-3,15.62803,R,ugm-3,17.32497,R,ugm-3,13.962,R,ugm-3 (Ref.eq)
08-01-2021,07:00,14.950,R,ugm-3 (FIDAS),3.18994,R,ugm-3,20.96302,R,ugm-3,25.85419,R,ugm-3,13.632,R,ugm-3 (Ref.eq)
08-01-2021,08:00,14.550,R,ugm-3 (FIDAS),9.65661,R,ugm-3,26.64006,R,ugm-3,41.44666,R,ugm-3,13.420,R,ugm-3 (Ref.eq)
08-01-2021,09:00,15.625,R,ugm-3 (FIDAS),36.54322,R,ugm-3,33.39135,R,ugm-3,89.42349,R,ugm-3,13.420,R,ugm-3 (Ref.eq)
08-01-2021,10:00,17.775,R,ugm-3 (FIDAS),45.89602,R,ugm-3,32.81060,R,ugm-3,103.18352,R,ugm-3,14.576,R,ugm-3 (Ref.eq)
08-01-2021,11:00,19.100,R,ugm-3 (FIDAS),15.36377,R,ugm-3,21.32088,R,ugm-3,44.87833,R,ugm-3,16.486,R,ugm-3 (Ref.eq)
08-01-2021,12:00,20.200,R,ugm-3 (FIDAS),8.76690,R,ugm-3,15.31039,R,ugm-3,28.75279,R,ugm-3,16.840,R,ugm-3 (Ref.eq)
08-01-2021,13:00,21.075,R,ugm-3 (FIDAS),9.20090,R,ugm-3,16.44406,R,ugm-3,30.55192,R,ugm-3,17.712,R,ugm-3 (Ref.eq)
08-01-2021,14:00,18.075,R,ugm-3 (FIDAS),4.20985,R,ugm-3,13.70193,R,ugm-3,20.15694,R,ugm-3,15.283,R,ugm-3 (Ref.eq)
08-01-2021,15:00,14.325,R,ugm-3 (FIDAS),2.60403,R,ugm-3,14.39833,R,ugm-3,18.39112,R,ugm-3,12.123,R,ugm-3 (Ref.eq)
08-01-2021,16:00,21.450,R,ugm-3 (FIDAS),6.18457,R,ugm-3,24.20086,R,ugm-3,33.68374,R,ugm-3,18.679,R,ugm-3 (Ref.eq)
08-01-2021,17:00,24.975,R,ugm-3 (FIDAS),5.33826,R,ugm-3,32.66173,R,ugm-3,40.84695,R,ugm-3,22.288,R,ugm-3 (Ref.eq)
08-01-2021,18:00,18.200,R,ugm-3 (FIDAS),3.25504,R,ugm-3,31.42477,R,ugm-3,36.41575,R,ugm-3,16.722,R,ugm-3 (Ref.eq)
08-01-2021,19:00,17.125,R,ugm-3 (FIDAS),1.17181,R,ugm-3,20.79234,R,ugm-3,22.58909,R,ugm-3,15.731,R,ugm-3 (Ref.eq)
08-01-2021,20:00,15.725,R,ugm-3 (FIDAS),0.97651,R,ugm-3,21.02516,R,ugm-3,22.52246,R,ugm-3,14.576,R,ugm-3 (Ref.eq)
08-01-2021,21:00,15.750,R,ugm-3 (FIDAS),1.06331,R,ugm-3,30.68734,R,ugm-3,32.31773,R,ugm-3,14.717,R,ugm-3 (Ref.eq)
08-01-2021,22:00,17.000,R,ugm-3 (FIDAS),0.88971,R,ugm-3,37.18385,R,ugm-3,38.54806,R,ugm-3,15.802,R,ugm-3 (Ref.eq)
08-01-2021,23:00,19.700,R,ugm-3 (FIDAS),1.36712,R,ugm-3,37.98443,R,ugm-3,40.08065,R,ugm-3,18.208,R,ugm-3 (Ref.eq)
08-01-2021,24:00,19.425,R,ugm-3 (FIDAS),0.86801,R,ugm-3,32.38613,R,ugm-3,33.71706,R,ugm-3,18.090,R,ugm-3 (Ref.eq)
09-01-2021,01:00,18.025,R,ugm-3 (FIDAS),0.66263,R,ugm-3,29.05430,R,ugm-3,30.07032,R,ugm-3,16.840,R,ugm-3 (Ref.eq)
09-01-2021,02:00,19.650,R,ugm-3 (FIDAS),0.72025,R,ugm-3,22.95189,R,ugm-3,24.05626,R,ugm-3,18.302,R,ugm-3 (Ref.eq)
09-01-2021,03:00,17.675,R,ugm-3 (FIDAS),0.58340,R,ugm-3,19.50242,R,ugm-3,20.39696,R,ugm-3,16.462,R,ugm-3 (Ref.eq)
09-01-2021,04:00,15.350,R,ugm-3 (FIDAS),0.66983,R,ugm-3,16.58397,R,ugm-3,17.61104,R,ugm-3,14.340,R,ugm-3 (Ref.eq)
09-01-2021,05:00,14.500,R,ugm-3 (FIDAS),0.62662,R,ugm-3,15.09144,R,ugm-3,16.05224,R,ugm-3,13.538,R,ugm-3 (Ref.eq)
09-01-2021,06:00,13.325,R,ugm-3 (FIDAS),0.64823,R,ugm-3,12.86937,R,ugm-3,13.86330,R,ugm-3,12.311,R,ugm-3 (Ref.eq)
09-01-2021,07:00,11.925,R,ugm-3 (FIDAS),0.49697,R,ugm-3,10.81285,R,ugm-3,11.57486,R,ugm-3,10.943,R,ugm-3 (Ref.eq)
09-01-2021,08:00,9.475,R,ugm-3 (FIDAS),0.66983,R,ugm-3,10.58097,R,ugm-3,11.60803,R,ugm-3,8.373,R,ugm-3 (Ref.eq)
09-01-2021,09:00,8.875,R,ugm-3 (FIDAS),0.84269,R,ugm-3,11.64255,R,ugm-3,12.93466,R,ugm-3,8.113,R,ugm-3 (Ref.eq)
09-01-2021,10:00,7.500,R,ugm-3 (FIDAS),1.44770,R,ugm-3,12.00835,R,ugm-3,14.22813,R,ugm-3,6.792,R,ugm-3 (Ref.eq)
09-01-2021,11:00,7.375,R,ugm-3 (FIDAS),2.22558,R,ugm-3,13.36939,R,ugm-3,16.78189,R,ugm-3,6.509,R,ugm-3 (Ref.eq)
09-01-2021,12:00,7.950,R,ugm-3 (FIDAS),2.42004,R,ugm-3,13.30337,R,ugm-3,17.01405,R,ugm-3,7.193,R,ugm-3 (Ref.eq)
09-01-2021,13:00,9.050,R,ugm-3 (FIDAS),2.83059,R,ugm-3,14.79649,R,ugm-3,19.13666,R,ugm-3,8.160,R,ugm-3 (Ref.eq)
09-01-2021,14:00,10.325,R,ugm-3 (FIDAS),2.16075,R,ugm-3,13.30296,R,ugm-3,16.61606,R,ugm-3,9.127,R,ugm-3 (Ref.eq)
09-01-2021,15:00,11.675,R,ugm-3 (FIDAS),1.68539,R,ugm-3,13.56752,R,ugm-3,16.15174,R,ugm-3,9.929,R,ugm-3 (Ref.eq)
09-01-2021,16:00,14.450,R,ugm-3 (FIDAS),1.14520,R,ugm-3,16.81690,R,ugm-3,18.57284,R,ugm-3,12.311,R,ugm-3 (Ref.eq)
09-01-2021,17:00,22.350,R,ugm-3 (FIDAS),1.33967,R,ugm-3,25.04233,R,ugm-3,27.09645,R,ugm-3,16.910,R,ugm-3 (Ref.eq)